Buffalo, NY

8:14 AM EST on December 08, 2019 (GMT -0500)
Buffalo Niagara International

Weather History for KBUF - July, 2019

Change the Weather History Date:

Saturday, July 27, 2019

  Actual Average Record
Temperature  
Mean Temperature 75 °F 71 °F  
Max Temperature 85 °F 80 °F 90 °F (1955)
Min Temperature 65 °F 63 °F 48 °F (1977)
Degree Days  
Heating Degree Days 0 0  
Month to date heating degree days 0 2  
Since 1 June heating degree days 62 66  
Since 1 July heating degree days 0 2  
Cooling Degree Days 10 6  
Month to date cooling degree days 240 177  
Year to date cooling degree days 323 306  
Since 1 June cooling degree days 315 280  
Growing Degree Days 24 (Base 50)    
Moisture  
Dew Point 60 °F    
Average Humidity 64    
Maximum Humidity 87    
Minimum Humidity 40    
Precipitation  
Precipitation 0.00 in 0.11 in 1.38 in (1948)
Month to date precipitation 1.09 2.76  
Year to date precipitation 24.01 21.43  
Snow  
Snow 0.00 in 0.00 in 0.00 in ()
Month to date snowfall 0.0 0.0  
Since 1 June snowfall 0.0 0.0  
Since 1 July snowfall 0.0 0.0  
Snow Depth 0.00 in    
Sea Level Pressure  
Sea Level Pressure 30.17 in    
Wind  
Wind Speed 10 mph (SSW)    
Max Wind Speed 21 mph    
Max Gust Speed 28 mph    
Visibility 10 miles    
Events      
T = Trace of Precipitation, MM = Missing Value Source: NWS Daily Summary

Daily Weather History Graph

Daily Weather History Graph

Search for Another Location

Airport or City:

Astronomy

Jul. 27, 2019 Rise Set
Actual Time 6:00 AM EDT 8:41 PM EDT
Civil Twilight 5:27 AM EDT 9:14 PM EDT
Nautical Twilight 4:46 AM EDT 9:55 PM EDT
Astronomical Twilight 3:59 AM EDT 10:42 PM EDT
Moon 1:46 AM EDT (7/27) 4:30 PM EDT (7/27)
Length of Visible Light 15h 46m
Length of Day
14h 41m
Waning Crescent, 24% of the Moon is Illuminated
Jul 27
Waning Crescent
Jul 31
New
Aug 7
First Quarter
Aug 15
Full
Aug 23
Last Quarter

Hourly Weather History & Observations

Time (EDT) Temp. Heat Index Dew Point Humidity Pressure Visibility Wind Dir Wind Speed Gust Speed Precip Events Conditions
12:54 AM 68.0 °F - 61.0 °F 78% 30.23 in 10.0 mi South 4.6 mph - N/A   Scattered Clouds
1:54 AM 69.1 °F - 62.1 °F 78% 30.22 in 10.0 mi SSE 4.6 mph - N/A   Partly Cloudy
2:54 AM 66.9 °F - 61.0 °F 81% 30.22 in 10.0 mi SE 4.6 mph - N/A   Partly Cloudy
3:54 AM 66.0 °F - 60.1 °F 81% 30.21 in 10.0 mi SSE 5.8 mph - N/A   Partly Cloudy
4:54 AM 64.9 °F - 60.1 °F 84% 30.21 in 10.0 mi SSE 5.8 mph - N/A   Partly Cloudy
5:54 AM 64.9 °F - 59.0 °F 81% 30.21 in 10.0 mi SSE 5.8 mph - N/A   Partly Cloudy
6:54 AM 66.0 °F - 59.0 °F 78% 30.22 in 10.0 mi South 6.9 mph - N/A   Partly Cloudy
7:54 AM 70.0 °F - 60.1 °F 71% 30.22 in 10.0 mi South 5.8 mph - N/A   Partly Cloudy
8:54 AM 75.0 °F - 60.1 °F 60% 30.22 in 10.0 mi SSW 6.9 mph - N/A   Partly Cloudy
9:54 AM 79.0 °F - 60.1 °F 52% 30.22 in 10.0 mi SW 10.4 mph - N/A   Partly Cloudy
10:54 AM 81.0 °F 81.6 °F 60.1 °F 49% 30.21 in 10.0 mi WSW 15.0 mph - N/A   Partly Cloudy
11:54 AM 82.9 °F 82.8 °F 59.0 °F 44% 30.21 in 10.0 mi WSW 12.7 mph 20.7 mph N/A   Scattered Clouds
12:54 PM 82.9 °F 82.8 °F 59.0 °F 44% 30.19 in 10.0 mi SW 16.1 mph - N/A   Mostly Cloudy
1:54 PM 84.0 °F 83.5 °F 57.9 °F 41% 30.17 in 10.0 mi WSW 16.1 mph 24.2 mph N/A   Scattered Clouds
2:54 PM 84.9 °F 83.9 °F 57.0 °F 38% 30.14 in 10.0 mi SW 18.4 mph 25.3 mph N/A   Scattered Clouds
3:54 PM 84.9 °F 83.9 °F 57.0 °F 38% 30.13 in 10.0 mi SW 13.8 mph 23.0 mph N/A   Scattered Clouds
4:54 PM 84.9 °F 83.9 °F 57.0 °F 38% 30.11 in 10.0 mi WSW 16.1 mph 20.7 mph N/A   Scattered Clouds
5:54 PM 84.0 °F 83.3 °F 57.0 °F 40% 30.10 in 10.0 mi SW 16.1 mph - N/A   Scattered Clouds
6:54 PM 82.0 °F 82.4 °F 60.1 °F 47% 30.10 in 10.0 mi SW 12.7 mph - N/A   Mostly Cloudy
7:54 PM 79.0 °F - 61.0 °F 54% 30.09 in 10.0 mi SSW 8.1 mph - N/A   Mostly Cloudy
8:54 PM 77.0 °F - 62.1 °F 60% 30.09 in 10.0 mi SSW 9.2 mph - N/A   Scattered Clouds
9:54 PM 77.0 °F - 61.0 °F 58% 30.09 in 10.0 mi SW 8.1 mph - N/A   Mostly Cloudy
10:54 PM 75.9 °F - 61.0 °F 60% 30.09 in 10.0 mi SSW 8.1 mph - N/A   Mostly Cloudy